Home   Weather   Hayward   Past weeks

Flag for USA Past Weather in Hayward, California, USA — Yesterday and Last 2 Weeks

Now
48 °F

Clear.


Feels Like: 47 °F
Forecast: 41 / 55 °F
Wind: 3 mph from Northwest

Location: Hayward Air Terminal

Current Time: Feb 24, 2017 at 10:45:39 pm

Latest Report: Feb 24, 2017 at 9:54 pm


Visibility: 10 mi

Pressure: 30.27 "Hg

Humidity: 61%

Dew Point: 35 °F

Location of HaywardLocation

Past Weather in Hayward — Graph

°F

Hayward Temperature Yesterday

Maximum temperature yesterday: 54 °F (at 1:54 pm)
Minimum temperature yesterday: 38 °F (at 6:54 am)
Average temperature yesterday: 47 °F

High & Low Weather Summary for the Past Weeks

 TemperatureHumidityPressure
High68 °F (Feb 15, 3:54 pm)90% (Feb 9, 8:30 pm)30.31 "Hg (Feb 9, 8:30 pm)
Low37 °F (Feb 24, 6:54 am)35% (Feb 24, 3:54 pm)29.15 "Hg (Feb 17, 5:14 pm)
Average54 °F70%30.00 "Hg
* Reported Feb 9 8:03 pm — Feb 24 8:54 pm, Hayward, Weather by CustomWeather, © 2017

Note: Actual official high and low records may vary slightly from our data, if they occured in-between our weather recording intervals... More about our weather records

Advertising

Hayward Weather History for the Previous 24 Hours

Scroll right to see more
 ConditionsComfort  
Time TempWeatherWind HumidityBarometerVisibility
8:54 pm
Fri, Feb 24
48 °FClear.9 mph61%30.26 "Hg10 mi
7:54 pm48 °FPassing clouds.6 mph61%30.26 "Hg10 mi
6:54 pm49 °FClear.9 mph57%30.26 "Hg10 mi
5:54 pm50 °FSunny.10 mph50%30.24 "Hg10 mi
4:54 pm53 °FSunny.10 mph43%30.25 "Hg10 mi
3:54 pm55 °FPassing clouds.12 mph35%30.25 "Hg10 mi
2:54 pm54 °FPassing clouds.9 mph40%30.26 "Hg10 mi
1:54 pm54 °FPassing clouds.7 mph40%30.27 "Hg10 mi
12:54 pm54 °FScattered clouds.9 mph41%30.29 "Hg10 mi
11:54 am53 °FPassing clouds.8 mph48%30.30 "Hg10 mi
10:54 am52 °FSunny.5 mph50%30.31 "Hg10 mi
9:54 am49 °FSunny.7 mph61%30.30 "Hg10 mi
8:54 am46 °FSunny.8 mph68%30.30 "Hg10 mi
7:54 am42 °FSunny.7 mph73%30.29 "Hg10 mi
6:54 am37 °FSunny.3 mph79%30.27 "Hg10 mi
5:54 am38 °FClear.5 mph79%30.27 "Hg10 mi
4:54 am39 °FClear.5 mph76%30.25 "Hg10 mi
3:54 am39 °FClear.5 mph76%30.24 "Hg10 mi
2:54 am39 °FClear.3 mph76%30.26 "Hg10 mi
1:54 am40 °FClear.5 mph77%30.27 "Hg10 mi
12:54 am40 °FClear.5 mph77%30.27 "Hg10 mi
11:54 pm
Thu, Feb 23
41 °FClear.5 mph74%30.26 "Hg10 mi
10:54 pm43 °FClear.5 mph71%30.25 "Hg10 mi
Weather by CustomWeather, © 2017

See weather overviewHow to use our weather pages